HB9TUO-2 Weather Reports


time (UTC)temp
F
wind
direction
speed
knots
gust
knots
rain 1hr
in
rain 24hr
in
rain mn
in
humidity
%
barometer
mb
20260503022003 49 332 0.9 1.7 0.00 0.00 0.00 68 1017.3
20260503021503 49 331 0.0 1.7 0.00 0.00 0.00 66 1017.2
20260503021003 49 336 0.9 1.7 0.00 0.00 0.00 66 1017.4
20260503020503 49 21 0.0 0.9 0.00 0.00 0.00 65 1017.4
20260503020003 49 5 0.0 0.9 0.00 0.00 0.00 65 1017.4
20260503015503 49 15 0.0 1.7 0.00 0.00 0.00 65 1017.4
20260503015003 49 24 0.0 1.7 0.00 0.00 0.00 65 1017.4
20260503014503 49 356 0.9 1.7 0.00 0.00 0.00 65 1017.3
20260503014003 49 17 0.0 1.7 0.00 0.00 0.00 65 1017.3
20260503013504 49 38 0.0 1.7 0.00 0.00 0.00 65 1017.4
20260503013004 49 20 0.0 1.7 0.00 0.00 0.00 65 1017.5
20260503012504 49 25 0.0 1.7 0.00 0.00 0.00 65 1017.3
20260503012213 49 34 0.0 1.7 0.00 0.00 0.00 65 1017.6
20260503011504 49 49 0.0 0.9 0.00 0.00 0.00 65 1017.5
20260503011004 49 48 0.0 1.7 0.00 0.00 0.00 65 1017.6
20260503010504 49 25 0.0 2.6 0.00 0.00 0.00 67 1017.7
20260503010004 49 359 0.0 2.6 0.00 0.00 0.00 68 1017.7
20260503005504 49 330 0.9 1.7 0.00 0.00 0.00 69 1017.9
20260503005004 49 317 1.7 2.6 0.00 0.00 0.00 70 1017.8
20260503004504 49 315 0.0 2.6 0.00 0.00 0.00 70 1017.7
20260503004004 49 316 1.7 1.7 0.00 0.00 0.00 70 1017.8
20260503003504 49 316 1.7 2.6 0.00 0.00 0.00 70 1017.9
20260503003003 49 315 0.0 2.6 0.00 0.00 0.00 69 1018.1
20260503002504 49 317 0.9 2.6 0.00 0.00 0.00 70 1018.2
20260503002214 49 317 1.7 3.5 0.00 0.00 0.00 69 1018.2
20260503001717 49 315 1.7 3.5 0.00 0.00 0.00 68 1018.3
20260503001004 49 340 1.7 1.7 0.00 0.00 0.00 69 1018.1
20260503000503 49 339 0.9 3.5 0.00 0.00 0.00 69 1018.3
20260503000003 49 327 0.9 3.5 0.00 0.00 0.00 69 1018.3
20260502235503 49 325 1.7 2.6 0.00 0.00 0.00 70 1018.4
20260502235003 49 320 1.7 2.6 0.00 0.00 0.00 70 1018.5
20260502234503 49 315 1.7 2.6 0.00 0.00 0.00 70 1018.5
20260502234003 49 316 1.7 3.5 0.00 0.00 0.00 70 1018.3
20260502233503 49 320 1.7 3.5 0.00 0.00 0.00 70 1018.3
20260502233004 50 323 1.7 1.7 0.00 0.00 0.00 70 1018.3
20260502232503 50 317 0.9 1.7 0.00 0.00 0.00 69 1018.4
20260502232003 50 319 0.0 1.7 0.00 0.00 0.00 70 1018.6
20260502231503 50 319 1.7 3.5 0.00 0.00 0.00 69 1018.6
20260502231003 50 318 1.7 3.5 0.00 0.00 0.00 70 1018.5
20260502230503 50 323 1.7 2.6 0.00 0.00 0.00 70 1018.6
20260502230003 50 319 1.7 2.6 0.00 0.00 0.00 70 1018.6
20260502225503 50 315 0.9 2.6 0.00 0.00 0.00 70 1018.5
20260502225217 50 315 1.7 2.6 0.00 0.00 0.00 70 1018.6
20260502224503 50 315 0.9 2.6 0.00 0.00 0.00 70 1018.6
20260502224003 50 319 0.9 2.6 0.00 0.00 0.00 70 1018.4
20260502223716 50 319 1.7 2.6 0.00 0.00 0.00 70 1018.5
20260502223003 50 316 0.9 2.6 0.00 0.00 0.00 70 1018.7
20260502222503 50 317 0.9 1.7 0.00 0.00 0.00 70 1018.6
20260502222215 50 315 0.9 1.7 0.00 0.00 0.00 70 1018.6
20260502221503 50 324 0.9 1.7 0.00 0.00 0.00 70 1018.6
20260502221003 50 321 0.0 1.7 0.00 0.00 0.00 70 1018.6
20260502220714 50 316 0.9 1.7 0.00 0.00 0.00 70 1018.7
20260502220004 50 320 0.9 1.7 0.00 0.00 0.00 70 1018.6
20260502215504 50 316 1.7 2.6 0.00 0.00 0.00 70 1018.8
20260502215218 50 316 1.7 2.6 0.00 0.00 0.00 70 1018.6
20260502214504 50 315 1.7 2.6 0.00 0.00 0.00 70 1018.7
20260502214004 50 315 0.9 2.6 0.00 0.00 0.00 70 1018.6
20260502213504 51 315 1.7 2.6 0.00 0.00 0.00 70 1018.7
20260502213004 50 315 1.7 2.6 0.00 0.00 0.00 70 1018.5
20260502212504 51 315 1.7 1.7 0.00 0.00 0.00 69 1018.7
20260502212004 51 320 0.9 1.7 0.00 0.00 0.00 67 1018.5
20260502211504 52 339 1.7 1.7 0.00 0.00 0.00 64 1018.8
20260502211217 52 347 0.9 1.7 0.00 0.00 0.00 64 1018.6
20260502210504 52 345 0.9 1.7 0.00 0.00 0.00 63 1018.7
20260502210004 52 335 0.9 1.7 0.00 0.00 0.00 63 1018.8
20260502205504 52 344 0.0 1.7 0.00 0.00 0.00 63 1018.8
20260502205004 52 352 0.0 1.7 0.00 0.00 0.00 63 1018.8
20260502204504 52 360 0.0 1.7 0.00 0.00 0.00 63 1018.9
20260502204004 52 359 0.0 1.7 0.00 0.00 0.00 63 1018.7
20260502203504 52 352 0.9 1.7 0.00 0.00 0.00 64 1018.7
20260502203004 52 330 0.9 1.7 0.00 0.00 0.00 65 1018.9
20260502202503 52 339 1.7 1.7 0.00 0.00 0.00 66 1018.8
20260502202003 52 350 0.0 2.6 0.00 0.00 0.00 64 1018.8
20260502201504 52 333 1.7 3.5 0.00 0.00 0.00 65 1018.6
20260502201003 52 342 1.7 3.5 0.00 0.00 0.00 66 1018.7
20260502200503 53 358 1.7 3.5 0.00 0.00 0.00 64 1018.7
20260502200003 53 353 1.7 3.5 0.00 0.00 0.00 64 1018.6
20260502195503 53 339 0.9 2.6 0.00 0.00 0.00 64 1018.6
20260502195004 53 328 0.9 2.6 0.00 0.00 0.00 64 1018.5
20260502194504 53 333 1.7 2.6 0.00 0.00 0.00 65 1018.7
20260502194003 53 336 0.0 3.5 0.00 0.00 0.00 63 1018.7
20260502193503 53 330 0.9 3.5 0.00 0.00 0.00 65 1018.8
20260502193216 53 321 1.7 3.5 0.00 0.00 0.00 65 1018.5
20260502192714 53 329 1.7 1.7 0.00 0.00 0.00 66 1018.6
20260502192003 53 330 0.9 2.6 0.00 0.00 0.00 65 1018.5
20260502191503 53 318 1.7 2.6 0.00 0.00 0.00 66 1018.6
20260502191004 53 314 1.7 2.6 0.00 0.00 0.00 65 1018.5
20260502190503 54 316 1.7 3.5 0.00 0.00 0.00 62 1018.6
20260502190003 54 317 1.7 3.5 0.00 0.00 0.00 63 1018.4
20260502185717 53 319 2.6 3.5 0.00 0.00 0.00 65 1018.7
20260502185003 54 322 1.7 3.5 0.00 0.00 0.00 65 1018.5
20260502184503 54 317 2.6 3.5 0.00 0.00 0.00 63 1018.4
20260502184003 54 316 2.6 3.5 0.00 0.00 0.00 63 1018.6
20260502183504 54 324 0.9 1.7 0.00 0.00 0.00 63 1018.5
20260502183004 55 360 0.9 1.7 0.00 0.00 0.00 58 1018.4
20260502182504 55 6 0.9 1.7 0.00 0.00 0.00 56 1018.2
20260502182004 55 329 0.0 1.7 0.00 0.00 0.00 56 1018.1
20260502181504 56 322 0.9 1.7 0.00 0.00 0.00 56 1018.2
20260502181004 56 356 0.9 1.7 0.00 0.00 0.00 54 1018.3
20260502180504 58 45 0.0 0.9 0.00 0.00 0.00 51 1018.0
20260502170504 67 176 1.7 5.2 0.00 0.00 0.00 40 1018.1
20260502164003 68 191 2.6 5.2 0.00 0.00 0.00 38 1018.1
20260502163503 68 176 0.9 5.2 0.00 0.00 0.00 38 1017.9
20260502163003 69 177 1.7 3.5 0.00 0.00 0.00 39 1018.1
20260502162503 68 190 1.7 4.3 0.00 0.00 0.00 40 1018.0
20260502162003 68 181 2.6 4.3 0.00 0.00 0.00 39 1018.1
20260502161503 69 175 2.6 3.5 0.00 0.00 0.00 38 1018.2
20260502161003 70 180 1.7 3.5 0.00 0.00 0.00 38 1018.2
20260502160504 69 182 2.6 3.5 0.00 0.00 0.00 39 1018.2
20260502152003 68 179 3.5 5.2 0.00 0.00 0.00 37 1018.6
20260502151504 69 183 1.7 3.5 0.00 0.00 0.00 39 1018.7
20260502151004 69 168 2.6 7.0 0.00 0.00 0.00 37 1018.7
20260502150504 69 177 1.7 7.0 0.00 0.00 0.00 39 1018.7
20260502130504 65 163 2.6 7.0 0.00 0.00 0.00 41 1020.0
20260502123503 64 180 2.6 5.2 0.00 0.00 0.00 42 1020.4
20260502123003 64 163 2.6 6.1 0.00 0.00 0.00 43 1020.5
20260502122503 63 163 3.5 6.1 0.00 0.00 0.00 46 1020.4
20260502122003 63 180 3.5 5.2 0.00 0.00 0.00 44 1020.3
20260502121503 63 164 3.5 6.1 0.00 0.00 0.00 47 1020.6
20260502121003 62 110 3.5 6.1 0.00 0.00 0.00 45 1020.6
20260502120504 63 114 3.5 5.2 0.00 0.00 0.00 45 1020.6
20260502120213 63 160 3.5 5.2 0.00 0.00 0.00 45 1020.8
20260502115503 62 179 2.6 5.2 0.00 0.00 0.00 44 1020.7
20260502115004 62 160 1.7 4.3 0.00 0.00 0.00 45 1021.1
20260502114004 62 185 2.6 5.2 0.00 0.00 0.00 47 1021.0
20260502113718 62 168 3.5 5.2 0.00 0.00 0.00 46 1021.2
20260502113004 61 184 3.5 5.2 0.00 0.00 0.00 48 1021.0
20260502112504 61 188 3.5 5.2 0.00 0.00 0.00 48 1021.4
20260502112004 61 169 3.5 6.1 0.00 0.00 0.00 49 1021.0
20260502111504 61 151 1.7 6.1 0.00 0.00 0.00 48 1021.3
20260502111004 61 144 1.7 5.2 0.00 0.00 0.00 50 1021.5
20260502110504 61 141 2.6 5.2 0.00 0.00 0.00 49 1021.4
20260502110004 60 148 1.7 5.2 0.00 0.00 0.00 46 1021.5
20260502105504 61 142 3.5 5.2 0.00 0.00 0.00 50 1021.6
20260502105004 60 139 3.5 5.2 0.00 0.00 0.00 50 1021.8
20260502104503 59 139 3.5 6.1 0.00 0.00 0.00 50 1021.7
20260502104004 59 182 1.7 6.1 0.00 0.00 0.00 50 1021.7
20260502103504 59 186 1.7 6.1 0.00 0.00 0.00 50 1021.9
20260502103003 59 145 3.5 4.3 0.00 0.00 0.00 52 1021.7
20260502102714 59 142 1.7 4.3 0.00 0.00 0.00 51 1022.0
20260502102218 58 136 1.7 4.3 0.00 0.00 0.00 50 1021.9
20260502101503 58 130 3.5 4.3 0.00 0.00 0.00 51 1022.0
20260502101004 58 167 2.6 3.5 0.00 0.00 0.00 51 1022.2
20260502100503 58 172 2.6 3.5 0.00 0.00 0.00 51 1022.2
20260502091503 53 124 2.6 3.5 0.00 0.00 0.00 58 1022.3
20260502091003 53 125 1.7 3.5 0.00 0.00 0.00 60 1022.3
20260502090504 53 147 1.7 2.6 0.00 0.00 0.00 59 1022.3
20260502090215 53 161 1.7 2.6 0.00 0.00 0.00 60 1022.7
20260502071004 48 45 0.0 0.9 0.00 0.00 0.00 66 1022.6
20260502070503 48 45 0.0 0.9 0.00 0.00 0.00 66 1022.6
20260502070004 48 45 0.0 0.9 0.00 0.00 0.00 66 1022.8
20260502065504 48 360 0.0 0.9 0.00 0.00 0.00 68 1022.6
20260502065217 48 360 0.0 0.9 0.00 0.00 0.00 68 1022.7
20260502064504 48 42 0.0 0.9 0.00 0.00 0.00 68 1022.6
20260502064004 48 51 0.0 0.9 0.00 0.00 0.00 68 1022.6
20260502063503 48 27 0.0 0.9 0.00 0.00 0.00 68 1022.5
20260502063214 48 11 0.0 0.9 0.00 0.00 0.00 69 1022.6
20260502062503 47 343 0.0 0.9 0.00 0.00 0.00 70 1022.5
20260502062003 47 315 0.0 0.9 0.00 0.00 0.00 70 1022.4
20260502061504 47 315 0.0 0.9 0.00 0.00 0.00 70 1022.4
20260502061003 47 0 0.0 0.0 0.00 0.00 0.00 70 1022.6
20260502060503 47 315 0.0 0.9 0.00 0.00 0.00 70 1022.6
20260502060003 47 315 0.0 0.9 0.00 0.00 0.00 70 1022.4
20260502055715 47 315 0.0 1.7 0.00 0.00 0.00 70 1022.6
20260502055003 47 315 0.0 1.7 0.00 0.00 0.00 70 1022.7
20260502054503 47 315 0.9 1.7 0.00 0.00 0.00 70 1022.4
20260502054003 47 315 0.0 1.7 0.00 0.00 0.00 70 1022.5
20260502053717 47 317 0.0 1.7 0.00 0.00 0.00 69 1022.5
20260502053003 47 336 0.0 1.7 0.00 0.00 0.00 68 1022.5
20260502052718 47 345 0.0 1.7 0.00 0.00 0.00 68 1022.3
20260502052004 47 338 0.0 1.7 0.00 0.00 0.00 69 1022.4
20260502051713 46 330 0.9 1.7 0.00 0.00 0.00 70 1022.5
20260502051004 46 315 0.0 0.9 0.00 0.00 0.00 70 1022.7
20260502050504 46 315 0.0 1.7 0.00 0.00 0.00 70 1022.5
20260502050218 46 315 0.0 1.7 0.00 0.00 0.00 70 1022.5
20260502045504 46 315 0.9 1.7 0.00 0.00 0.00 71 1022.5
20260502045004 46 315 1.7 1.7 0.00 0.00 0.00 71 1022.3
20260502044504 46 315 0.9 1.7 0.00 0.00 0.00 72 1022.6
20260502044004 45 330 0.0 1.7 0.00 0.00 0.00 79 1022.5
20260502043504 45 334 0.0 1.7 0.00 0.00 0.00 79 1022.5
20260502043004 45 323 0.9 1.7 0.00 0.00 0.00 79 1022.6
20260502042504 45 315 0.0 0.9 0.00 0.00 0.00 79 1022.3
20260502042004 45 315 0.0 1.7 0.00 0.00 0.00 78 1022.4
20260502041714 45 315 0.0 1.7 0.00 0.00 0.00 79 1022.4
20260502041003 45 315 0.0 1.7 0.00 0.00 0.00 79 1022.3
20260502040503 45 315 0.9 1.7 0.00 0.00 0.00 79 1022.2
20260502040004 45 315 0.9 2.6 0.00 0.00 0.00 79 1022.1
20260502035504 45 320 0.9 2.6 0.00 0.00 0.00 79 1022.1
20260502035004 45 326 0.9 2.6 0.00 0.00 0.00 79 1022.1
20260502034503 45 325 0.9 2.6 0.00 0.00 0.00 78 1022.0
20260502034003 46 331 1.7 2.6 0.00 0.00 0.00 72 1022.2
20260502033503 45 330 0.0 1.7 0.00 0.00 0.00 78 1022.0
20260502033003 46 339 1.7 1.7 0.00 0.00 0.00 72 1022.0
20260502032503 45 332 0.0 1.7 0.00 0.00 0.00 77 1022.0
20260502032003 45 325 0.0 1.7 0.00 0.00 0.00 77 1022.0
20260502031503 46 358 0.9 1.7 0.00 0.00 0.00 71 1022.2
20260502031213 46 3 0.0 1.7 0.00 0.00 0.00 71 1022.2
20260502030504 46 360 0.9 1.7 0.00 0.00 0.00 71 1022.1
20260502030003 46 1 0.0 1.7 0.00 0.00 0.00 71 1022.3
20260502025503 46 3 0.9 1.7 0.00 0.00 0.00 71 1022.3
20260502025003 46 2 0.0 1.7 0.00 0.00 0.00 71 1022.0
20260502024504 46 12 0.9 1.7 0.00 0.00 0.00 71 1022.3
20260502024003 46 29 0.0 1.7 0.00 0.00 0.00 71 1022.0
20260502023503 46 32 0.0 1.7 0.00 0.00 0.00 70 1022.3
20260502023003 46 15 0.0 1.7 0.00 0.00 0.00 70 1022.2
20260502022503 46 15 0.9 1.7 0.00 0.00 0.00 71 1022.1